Tracking 20942 objects as of 13-Jul-2020
HD Live streaming from Space Station
objects crossing your sky now

THOR ABLESTAR DEB

Track THOR ABLESTAR DEB now!
10-day predictions


NORAD ID: 548
Int'l Code: 1961-015GH
Perigee: 600.3 km
Apogee: 771.1 km
Inclination: 66.7 °
Period: 98.3 minutes
Semi major axis: 7056 km
RCS: 0.028 m2 (small)
Launch date: June 29, 1961
Source: United States (US)
Launch site: AIR FORCE EASTERN TEST RANGE (AFETR)

Note: This is SATELLITE DEBRIS
aabbcc
Your satellite tracking list
Your tracking list is empty




NASA's NSSDC Master Catalog

Two Line Element Set (TLE):
1   548U 61015GH  20194.04879024 +.00000024 +00000-0 +24317-4 0  9997
2   548 066.6736 222.0093 0121023 328.0751 031.3069 14.64543709085789
Source of the keplerian elements: AFSPC